GW4111 Weather Reports


Display with metric or nautical units.
time (UTC)temp
F
wind
direction
speed
MPH
gust
MPH
rain 1hr
in
rain 24hr
in
rain mn
in
humidity
%
barometer
mb
20260504010039 54 228 8.0 26.0 0.00 0.00 0.00 51 1008.7
20260504004538 53 257 8.0 18.0 0.00 0.00 0.00 53 1008.7
20260504003041 53 231 6.0 14.0 0.00 0.00 0.00 55 1008.7
20260504001545 52 242 5.0 12.0 0.00 0.00 0.00 57 1008.8
20260504000043 53 250 6.0 15.0 0.00 0.00 0.00 56 1008.8
20260503234540 53 278 5.0 19.0 0.00 0.00 0.00 56 1008.8
20260503233040 53 236 6.0 18.0 0.00 0.00 0.00 58 1009.0
20260503231542 53 284 3.0 16.0 0.00 0.00 0.00 61 1009.0
20260503230037 53 274 5.0 12.0 0.00 0.00 0.00 61 1009.1
20260503224539 53 263 6.0 21.0 0.00 0.00 0.00 59 1009.2
20260503223042 52 235 7.0 18.0 0.00 0.00 0.00 59 1009.2
20260503221548 52 263 9.0 19.0 0.00 0.00 0.00 60 1009.3
20260503220043 52 250 7.0 17.0 0.00 0.00 0.00 60 1009.2
20260503214538 52 207 8.0 21.0 0.00 0.00 0.00 59 1008.9
20260503213038 52 218 7.0 18.0 0.00 0.00 0.00 59 1008.7
20260503211538 52 214 8.0 17.0 0.00 0.00 0.00 60 1008.8
20260503210048 51 249 5.0 16.0 0.00 0.00 0.00 61 1008.9
20260503204551 52 211 7.0 18.0 0.00 0.00 0.00 59 1009.1
20260503203038 52 165 7.0 20.0 0.00 0.00 0.00 60 1009.1
20260503201539 53 252 8.0 19.0 0.00 0.00 0.00 57 1009.2
20260503200045 53 256 6.0 14.0 0.00 0.00 0.00 56 1009.4
20260503194538 53 200 10.0 19.0 0.00 0.00 0.00 53 1009.5
20260503193038 54 217 9.0 18.0 0.00 0.00 0.00 52 1009.8
20260503191535 53 295 7.0 17.0 0.00 0.00 0.00 53 1010.2
20260503190045 53 281 10.0 24.0 0.00 0.00 0.00 51 1010.3
20260503184538 54 161 7.0 19.0 0.00 0.00 0.00 49 1010.6
20260503183039 53 239 8.0 21.0 0.00 0.00 0.00 47 1010.9
20260503181537 53 236 11.0 25.0 0.00 0.00 0.00 42 1011.0
20260503180037 53 210 11.0 24.0 0.00 0.00 0.00 45 1011.1
20260503174534 51 250 9.0 18.0 0.00 0.00 0.00 49 1011.4
20260503173108 50 186 8.0 19.0 0.00 0.00 0.00 55 1011.8
20260503171543 50 197 11.0 21.0 0.00 0.00 0.00 56 1011.7
20260503081549 32 0 0.0 0.0 0.00 0.00 0.00 7 1013.8
20260503071542 31 0 0.0 0.0 0.00 0.00 0.00 100 1013.5
20260503054539 33 0 0.0 0.0 0.00 0.00 0.00 17 1013.9
20260503053038 34 0 0.0 0.0 0.00 0.00 0.00 27 1013.9
20260503051535 35 0 0.0 1.0 0.00 0.00 0.00 32 1014.1
20260503050036 36 0 0.0 1.0 0.00 0.00 0.00 45 1014.1
20260503044542 36 0 0.0 1.0 0.00 0.00 0.00 53 1014.1
20260503043038 37 0 0.0 1.0 0.00 0.00 0.00 59 1014.2
20260503041541 38 0 0.0 2.0 0.00 0.00 0.00 63 1014.4
20260503040038 39 0 0.0 1.0 0.00 0.00 0.00 66 1014.4
20260503034536 39 0 0.0 2.0 0.00 0.00 0.00 66 1014.4
20260503033039 39 0 0.0 1.0 0.00 0.00 0.00 67 1014.4
20260503031548 39 0 0.0 0.0 0.00 0.00 0.00 68 1014.5
20260503030039 40 0 0.0 0.0 0.00 0.00 0.00 68 1014.5
20260503024538 40 0 0.0 1.0 0.00 0.00 0.00 69 1014.7
20260503023039 40 207 0.0 1.0 0.00 0.00 0.00 68 1014.8
20260503021539 40 0 0.0 3.0 0.00 0.00 0.00 68 1014.9
20260503020035 40 0 0.0 5.0 0.00 0.00 0.00 69 1015.0
20260503014538 41 0 1.0 6.0 0.00 0.00 0.00 67 1015.0
20260503013042 41 0 2.0 7.0 0.00 0.00 0.00 68 1014.9
20260503011544 41 242 2.0 7.0 0.00 0.00 0.00 69 1015.0